EW0609 Weather Reports


time (UTC)temp
C
wind
direction
speed
KPH
gust
KPH
rain 1hr
cm
rain 24hr
cm
rain mn
cm
humidity
%
barometer
mb
20260906220811 33 114 8.0 24.1 0.00 0.00 0.00 34 1015.2
20260906220657 33 111 8.0 17.7 0.00 0.00 0.00 36 1015.4
20260906215815 33 111 9.7 17.7 0.00 0.00 0.00 35 1015.3
20260906215310 33 121 6.4 19.3 0.00 0.00 0.00 35 1015.3
20260906214812 33 121 9.7 19.3 0.00 0.00 0.00 35 1015.4
20260906214311 33 158 8.0 22.5 0.00 0.00 0.00 35 1015.4
20260906213810 33 154 11.3 22.5 0.00 0.00 0.00 35 1015.4
20260906213309 33 120 9.7 19.3 0.00 0.00 0.00 35 1015.4
20260906212812 33 99 9.7 20.9 0.00 0.00 0.00 35 1015.4
20260906212654 33 116 4.8 25.7 0.00 0.00 0.00 36 1015.6
20260906211813 33 78 6.4 27.4 0.00 0.00 0.00 36 1015.6
20260906211337 33 204 4.8 24.1 0.00 0.00 0.00 35 1015.6
20260906211314 33 111 12.9 27.4 0.00 0.00 0.00 35 1015.6
20260906210604 35 111 14.5 27.4 0.00 0.00 0.00 35 1015.7
20260906210425 34 96 9.7 27.4 0.00 0.00 0.00 35 1015.7
20260906205640 35 113 12.9 24.1 0.00 0.00 0.00 35 1015.8
20260906205340 35 104 14.5 25.7 0.00 0.00 0.00 33 1015.8
20260906204312 35 109 6.4 20.9 0.00 0.00 0.00 35 1015.8
20260906204302 34 109 4.8 20.9 0.00 0.00 0.00 35 1016.1
20260906203309 35 106 11.3 24.1 0.00 0.00 0.00 33 1016.1
20260906203134 35 97 14.5 24.1 0.00 0.00 0.00 34 1015.9
20260906202312 35 92 6.4 24.1 0.00 0.00 0.00 35 1016.1
20260906202214 35 113 9.7 22.5 0.00 0.00 0.00 36 1016.1
20260906201312 35 161 11.3 24.1 0.00 0.00 0.00 36 1015.9
20260906201249 35 89 14.5 24.1 0.00 0.00 0.00 34 1015.9
20260906200535 35 125 11.3 25.7 0.00 0.00 0.00 35 1016.1
20260906195814 35 94 17.7 30.6 0.00 0.00 0.00 34 1016.2
20260906195324 35 72 6.4 30.6 0.00 0.00 0.00 35 1016.3
20260906195037 35 176 6.4 22.5 0.00 0.00 0.00 36 1016.3
20260906194322 35 94 9.7 22.5 0.00 0.00 0.00 34 1016.5
20260906194231 35 97 8.0 20.9 0.00 0.00 0.00 37 1016.5
20260906193309 35 99 9.7 20.9 0.00 0.00 0.00 35 1016.6
20260906192811 35 154 8.0 25.7 0.00 0.00 0.00 35 1016.5
20260906192310 34 120 9.7 27.4 0.00 0.00 0.00 37 1016.7
20260906191816 33 114 14.5 27.4 0.00 0.00 0.00 37 1016.6
20260906191321 34 116 4.8 20.9 0.00 0.00 0.00 37 1016.8
20260906190810 33 154 12.9 20.9 0.00 0.00 0.00 37 1016.9
20260906190314 34 227 8.0 19.3 0.00 0.00 0.00 37 1016.8
20260906185817 34 94 6.4 20.9 0.00 0.00 0.00 37 1017.1
20260906185727 35 179 9.7 20.9 0.00 0.00 0.00 36 1017.2
20260906184812 34 172 14.5 20.9 0.00 0.00 0.00 38 1017.2
20260906184310 34 166 12.9 20.9 0.00 0.00 0.00 38 1017.3
20260906183810 33 137 8.0 17.7 0.00 0.00 0.00 38 1017.3
20260906183312 34 142 8.0 17.7 0.00 0.00 0.00 40 1017.5
20260906182811 33 159 8.0 17.7 0.00 0.00 0.00 38 1017.5
20260906182804 34 103 9.7 19.3 0.00 0.00 0.00 37 1017.5
20260906182037 34 155 9.7 19.3 0.00 0.00 0.00 42 1017.7
20260906181831 34 155 9.7 19.3 0.00 0.00 0.00 42 1017.7
20260906181309 34 116 9.7 27.4 0.00 0.00 0.00 38 1017.7
20260906181216 34 131 12.9 27.4 0.00 0.00 0.00 38 1017.7
20260906180310 33 104 9.7 22.5 0.00 0.00 0.00 39 1017.8
20260906175810 34 134 11.3 22.5 0.00 0.00 0.00 40 1017.8
20260906175316 33 157 9.7 20.9 0.00 0.00 0.00 41 1017.8
20260906174809 33 172 8.0 20.9 0.00 0.00 0.00 40 1018.1
20260906174315 33 203 9.7 29.0 0.00 0.00 0.00 40 1018.1
20260906174044 33 210 14.5 29.0 0.00 0.00 0.00 41 1018.1
20260906173545 33 134 8.0 27.4 0.00 0.00 0.00 41 1018.2
20260906173323 33 134 8.0 27.4 0.00 0.00 0.00 41 1018.2
20260906172811 33 107 14.5 27.4 0.00 0.00 0.00 40 1018.2
20260906172313 33 123 9.7 22.5 0.00 0.00 0.00 42 1018.2
20260906171842 33 103 9.7 22.5 0.00 0.00 0.00 43 1018.3
20260906171315 33 240 8.0 22.5 0.00 0.00 0.00 42 1018.2
20260906170819 33 104 9.7 22.5 0.00 0.00 0.00 42 1018.2
20260906170318 33 127 6.4 19.3 0.00 0.00 0.00 42 1018.2
20260906165810 33 144 8.0 22.5 0.00 0.00 0.00 44 1018.3
20260906165319 32 162 9.7 22.5 0.00 0.00 0.00 44 1018.3
20260906165306 32 159 9.7 22.5 0.00 0.00 0.00 44 1018.3
20260906164312 32 171 9.7 22.5 0.00 0.00 0.00 46 1018.4
20260906164041 32 147 9.7 22.5 0.00 0.00 0.00 46 1018.4
20260906164003 32 65 8.0 19.3 0.00 0.00 0.00 46 1018.5
20260906163819 32 147 9.7 22.5 0.00 0.00 0.00 46 1018.4
20260906163757 32 65 8.0 19.3 0.00 0.00 0.00 46 1018.5
20260906162810 32 151 6.4 19.3 0.00 0.00 0.00 46 1018.4
20260906162310 32 199 6.4 19.3 0.00 0.00 0.00 46 1018.5
20260906162044 32 173 8.0 19.3 0.00 0.00 0.00 48 1018.5
20260906161812 32 173 8.0 19.3 0.00 0.00 0.00 48 1018.5
20260906161311 32 155 9.7 19.3 0.00 0.00 0.00 48 1018.4
20260906160817 32 113 6.4 19.3 0.00 0.00 0.00 47 1018.4
20260906160350 31 244 9.7 19.3 0.00 0.00 0.00 49 1018.3
20260906160326 31 162 6.4 19.3 0.00 0.00 0.00 49 1018.4
20260906155309 31 220 8.0 17.7 0.00 0.00 0.00 49 1018.3
20260906154817 31 220 9.7 17.7 0.00 0.00 0.00 50 1018.2
20260906154311 31 145 6.4 19.3 0.00 0.00 0.00 50 1018.3
20260906154036 30 147 6.4 19.3 0.00 0.00 0.00 52 1018.1
20260906153813 30 147 6.4 19.3 0.00 0.00 0.00 52 1018.1
20260906153544 30 228 8.0 27.4 0.00 0.00 0.00 53 1018.1
20260906153314 30 228 8.0 27.4 0.00 0.00 0.00 53 1018.1
20260906152809 30 271 8.0 27.4 0.00 0.00 0.00 53 1018.2
20260906152309 30 0 9.7 17.7 0.00 0.00 0.00 53 1018.1
20260906151814 30 0 9.7 17.7 0.00 0.00 0.00 53 1018.1
20260906151313 30 134 8.0 19.3 0.00 0.00 0.00 53 1018.2
20260906150809 29 123 9.7 19.3 0.00 0.00 0.00 54 1018.1
20260906150309 29 210 6.4 17.7 0.00 0.00 0.00 53 1018.1
20260906150214 29 162 4.8 19.3 0.00 0.00 0.00 53 1018.1
20260906145323 29 179 11.3 19.3 0.00 0.00 0.00 54 1018.2
20260906144810 28 159 3.2 19.3 0.00 0.00 0.00 54 1018.1
20260906144657 28 193 8.0 17.7 0.00 0.00 0.00 54 1018.1
20260906143813 28 189 8.0 17.7 0.00 0.00 0.00 55 1018.1
20260906143309 28 159 6.4 19.3 0.00 0.00 0.00 56 1018.1
20260906142809 28 226 9.7 19.3 0.00 0.00 0.00 56 1018.0
20260906142311 27 227 8.0 17.7 0.00 0.00 0.00 57 1018.0
20260906141808 27 176 3.2 14.5 0.00 0.00 0.00 58 1017.8
20260906141309 26 213 4.8 14.5 0.00 0.00 0.00 58 1018.0
20260906141144 27 214 6.4 14.5 0.00 0.00 0.00 58 1018.0
20260906140644 26 231 4.8 14.5 0.00 0.00 0.00 58 1018.0
20260906135809 26 155 4.8 11.3 0.00 0.00 0.00 59 1018.0
20260906135308 26 207 6.4 11.3 0.00 0.00 0.00 60 1017.8
20260906134807 25 202 6.4 11.3 0.00 0.00 0.00 61 1017.7
20260906134310 25 175 4.8 9.7 0.00 0.00 0.00 62 1017.6
20260906133809 24 142 3.2 9.7 0.00 0.00 0.00 63 1017.6
20260906133309 24 172 3.2 8.0 0.00 0.00 0.00 63 1017.6
20260906132809 23 159 3.2 9.7 0.00 0.00 0.00 64 1017.5
20260906132308 23 154 4.8 11.3 0.00 0.00 0.00 64 1017.5
20260906131809 23 175 4.8 11.3 0.00 0.00 0.00 64 1017.5
20260906131311 23 92 1.6 8.0 0.00 0.00 0.00 64 1017.4
20260906130809 23 203 6.4 11.3 0.00 0.00 0.00 64 1017.4
20260906130309 23 166 6.4 11.3 0.00 0.00 0.00 64 1017.4
20260906125813 23 161 4.8 11.3 0.00 0.00 0.00 64 1017.3
20260906125538 23 217 3.2 14.5 0.00 0.00 0.00 64 1017.4
20260906125436 23 219 3.2 14.5 0.00 0.00 0.00 64 1017.3
20260906124308 23 161 4.8 14.5 0.00 0.00 0.00 64 1017.4
20260906123810 23 171 4.8 14.5 0.00 0.00 0.00 64 1017.2
20260906123309 23 165 4.8 11.3 0.00 0.00 0.00 64 1017.3
20260906122808 23 141 4.8 14.5 0.00 0.00 0.00 64 1017.2
20260906122310 23 133 6.4 14.5 0.00 0.00 0.00 64 1017.2
20260906122026 23 117 6.4 11.3 0.00 0.00 0.00 64 1016.9
20260906121813 23 117 6.4 11.3 0.00 0.00 0.00 64 1016.9
20260906121309 23 128 4.8 11.3 0.00 0.00 0.00 64 1017.1
20260906120809 23 123 3.2 9.7 0.00 0.00 0.00 64 1017.1
20260906120310 23 137 6.4 11.3 0.00 0.00 0.00 63 1016.9
20260906115808 23 114 8.0 11.3 0.00 0.00 0.00 63 1017.1
20260906115309 23 133 4.8 8.0 0.00 0.00 0.00 62 1016.9
20260906114809 23 180 3.2 11.3 0.00 0.00 0.00 62 1016.9
20260906114540 23 138 1.6 11.3 0.00 0.00 0.00 62 1016.8
20260906114135 23 133 3.2 11.3 0.00 0.00 0.00 62 1016.8
20260906113309 23 140 4.8 11.3 0.00 0.00 0.00 62 1016.9
20260906113113 23 117 4.8 9.7 0.00 0.00 0.00 62 1016.9
20260906112308 23 110 1.6 9.7 0.00 0.00 0.00 62 1016.9
20260906112145 23 110 6.4 9.7 0.00 0.00 0.00 61 1016.9
20260906111308 23 193 0.0 8.0 0.00 0.00 0.00 61 1016.9
20260906110809 23 209 3.2 8.0 0.00 0.00 0.00 61 1016.9
20260906110310 23 147 3.2 9.7 0.00 0.00 0.00 61 1016.9
20260906105809 23 116 3.2 9.7 0.00 0.00 0.00 61 1016.8
20260906105307 23 145 3.2 9.7 0.00 0.00 0.00 61 1016.9
20260906104808 23 173 3.2 9.7 0.00 0.00 0.00 61 1016.7
20260906104308 23 121 4.8 11.3 0.00 0.00 0.00 61 1016.7
20260906103811 24 173 6.4 11.3 0.00 0.00 0.00 61 1016.8
20260906103634 24 128 6.4 11.3 0.00 0.00 0.00 60 1016.8
20260906102807 24 103 4.8 9.7 0.00 0.00 0.00 60 1016.7
20260906102350 24 93 3.2 8.0 0.00 0.00 0.00 59 1016.6
20260906102343 24 175 3.2 8.0 0.00 0.00 0.00 60 1016.6
20260906102329 24 140 4.8 6.4 0.00 0.00 0.00 60 1016.7
20260906100808 24 142 3.2 9.7 0.00 0.00 0.00 59 1016.5
20260906100308 24 142 4.8 9.7 0.00 0.00 0.00 59 1016.5
20260906095809 24 141 4.8 14.5 0.00 0.00 0.00 59 1016.5
20260906095308 25 164 3.2 14.5 0.00 0.00 0.00 58 1016.5
20260906094808 25 175 4.8 11.3 0.00 0.00 0.00 58 1016.5
20260906094540 25 138 6.4 11.3 0.00 0.00 0.00 58 1016.5
20260906093810 25 121 3.2 11.3 0.00 0.00 0.00 58 1016.6
20260906093638 25 169 6.4 11.3 0.00 0.00 0.00 58 1016.6
20260906092808 25 180 4.8 11.3 0.00 0.00 0.00 57 1016.6
20260906092311 25 148 3.2 9.7 0.00 0.00 0.00 57 1016.6
20260906092012 25 149 3.2 9.7 0.00 0.00 0.00 57 1016.6
20260906091920 25 203 4.8 9.7 0.00 0.00 0.00 57 1016.6
20260906090807 25 180 1.6 9.7 0.00 0.00 0.00 57 1016.5
20260906090309 25 159 3.2 9.7 0.00 0.00 0.00 57 1016.6
20260906085808 25 159 6.4 17.7 0.00 0.00 0.00 57 1016.5
20260906085533 25 173 4.8 17.7 0.00 0.00 0.00 57 1016.6
20260906085316 25 173 4.8 17.7 0.00 0.00 0.00 57 1016.6
20260906084808 25 159 4.8 11.3 0.00 0.00 0.00 57 1016.6
20260906084309 25 161 4.8 11.3 0.00 0.00 0.00 56 1016.6
20260906084010 25 178 3.2 9.7 0.00 0.00 0.00 56 1016.5
20260906083925 25 155 6.4 11.3 0.00 0.00 0.00 57 1016.6
20260906082809 25 219 3.2 11.3 0.00 0.00 0.00 55 1016.5
20260906082310 26 145 4.8 11.3 0.00 0.00 0.00 55 1016.5
20260906081807 26 171 6.4 9.7 0.00 0.00 0.00 55 1016.5
20260906081639 26 183 4.8 14.5 0.00 0.00 0.00 54 1016.6
20260906080809 26 173 6.4 14.5 0.00 0.00 0.00 54 1016.6
20260906080308 26 169 3.2 16.1 0.00 0.00 0.00 54 1016.6
20260906075812 26 192 8.0 16.1 0.00 0.00 0.00 53 1016.6
20260906075632 26 154 3.2 14.5 0.00 0.00 0.00 53 1016.6
20260906074808 26 116 6.4 17.7 0.00 0.00 0.00 53 1016.5
20260906074308 26 137 6.4 17.7 0.00 0.00 0.00 53 1016.5
20260906073809 27 124 4.8 17.7 0.00 0.00 0.00 53 1016.5
20260906073308 27 159 4.8 17.7 0.00 0.00 0.00 52 1016.5
20260906072809 27 127 6.4 17.7 0.00 0.00 0.00 52 1016.5
20260906072307 27 147 8.0 16.1 0.00 0.00 0.00 52 1016.6
20260906072138 27 152 6.4 19.3 0.00 0.00 0.00 52 1016.6
20260906071309 27 102 8.0 19.3 0.00 0.00 0.00 52 1016.6
20260906070809 27 155 8.0 17.7 0.00 0.00 0.00 52 1016.7
20260906070309 27 151 4.8 17.7 0.00 0.00 0.00 52 1016.8
20260906065808 27 148 6.4 11.3 0.00 0.00 0.00 52 1016.7
20260906065647 27 144 6.4 16.1 0.00 0.00 0.00 52 1016.7
20260906065140 27 186 8.0 16.1 0.00 0.00 0.00 52 1016.6
20260906064634 27 123 4.8 11.3 0.00 0.00 0.00 52 1016.6
20260906063808 27 99 4.8 11.3 0.00 0.00 0.00 52 1016.6
20260906063308 27 114 3.2 14.5 0.00 0.00 0.00 52 1016.6
20260906062813 27 175 6.4 14.5 0.00 0.00 0.00 52 1016.7
20260906062308 27 116 6.4 14.5 0.00 0.00 0.00 52 1016.7
20260906061809 27 135 6.4 16.1 0.00 0.00 0.00 52 1016.6
20260906061308 27 124 4.8 16.1 0.00 0.00 0.00 52 1016.7
20260906060811 27 127 4.8 14.5 0.00 0.00 0.00 51 1016.8
20260906060311 27 93 4.8 14.5 0.00 0.00 0.00 51 1016.8
20260906055808 27 102 6.4 14.5 0.00 0.00 0.00 50 1016.7
20260906055308 27 151 4.8 14.5 0.00 0.00 0.00 50 1016.7
20260906055147 27 116 8.0 14.5 0.00 0.00 0.00 50 1016.7
20260906054307 27 79 6.4 14.5 0.00 0.00 0.00 50 1016.7
20260906053808 27 144 6.4 14.5 0.00 0.00 0.00 49 1016.8
20260906053309 27 111 6.4 14.5 0.00 0.00 0.00 49 1016.6
20260906052809 28 104 6.4 14.5 0.00 0.00 0.00 49 1016.7
20260906052634 28 103 6.4 17.7 0.00 0.00 0.00 49 1016.5
20260906051808 28 111 8.0 17.7 0.00 0.00 0.00 49 1016.6
20260906051308 27 120 8.0 17.7 0.00 0.00 0.00 49 1016.6
20260906050808 27 109 4.8 9.7 0.00 0.00 0.00 50 1016.7
20260906050308 27 116 4.8 17.7 0.00 0.00 0.00 50 1016.6
20260906045831 27 144 4.8 17.7 0.00 0.00 0.00 49 1016.7
20260906045430 28 123 6.4 16.1 0.00 0.00 0.00 49 1016.6
20260906044312 28 116 6.4 14.5 0.00 0.00 0.00 49 1016.6
20260906043808 28 145 6.4 16.1 0.00 0.00 0.00 48 1016.7
20260906043307 28 151 9.7 16.1 0.00 0.00 0.00 48 1016.7
20260906043117 28 113 8.0 16.1 0.00 0.00 0.00 47 1016.7
20260906042308 28 83 8.0 19.3 0.00 0.00 0.00 47 1016.7
20260906041807 28 102 8.0 19.3 0.00 0.00 0.00 46 1016.7
20260906041635 28 110 6.4 16.1 0.00 0.00 0.00 46 1016.7
20260906041133 29 99 8.0 16.1 0.00 0.00 0.00 46 1016.6
20260906040309 29 104 9.7 22.5 0.00 0.00 0.00 46 1016.6
20260906040143 29 169 8.0 22.5 0.00 0.00 0.00 45 1016.6
20260906035317 29 111 9.7 17.7 0.00 0.00 0.00 45 1016.6
20260906034809 29 125 9.7 17.7 0.00 0.00 0.00 45 1016.6
20260906034648 29 104 6.4 16.1 0.00 0.00 0.00 44 1016.6
20260906033809 29 102 8.0 14.5 0.00 0.00 0.00 44 1016.7
20260906033307 29 111 6.4 11.3 0.00 0.00 0.00 44 1016.6
20260906032809 30 130 4.8 11.3 0.00 0.00 0.00 44 1016.6
20260906032519 30 111 8.0 17.7 0.00 0.00 0.00 43 1016.4
20260906032418 30 148 3.2 17.7 0.00 0.00 0.00 43 1016.5
20260906031308 30 121 6.4 19.3 0.00 0.00 0.00 43 1016.4
20260906031142 30 113 6.4 19.3 0.00 0.00 0.00 44 1016.3
20260906030637 30 164 11.3 19.3 0.00 0.00 0.00 44 1016.1
20260906025845 30 107 9.7 24.1 0.00 0.00 0.00 43 1015.8
20260906025438 30 125 9.7 24.1 0.00 0.00 0.00 43 1015.7
20260906024308 30 151 9.7 22.5 0.00 0.00 0.00 43 1015.6
20260906023812 30 113 12.9 20.9 0.00 0.00 0.00 43 1015.5
20260906023308 30 107 9.7 20.9 0.00 0.00 0.00 43 1015.4
20260906023137 30 87 9.7 20.9 0.00 0.00 0.00 44 1015.3
20260906022310 30 111 12.9 20.9 0.00 0.00 0.00 44 1015.3
20260906021807 30 138 12.9 19.3 0.00 0.00 0.00 44 1015.3
20260906021641 30 111 11.3 19.3 0.00 0.00 0.00 44 1015.3
20260906020807 30 158 9.7 17.7 0.00 0.00 0.00 45 1015.3
20260906020308 30 102 8.0 19.3 0.00 0.00 0.00 45 1015.3
20260906015809 30 97 9.7 19.3 0.00 0.00 0.00 45 1015.3
20260906015312 30 118 9.7 19.3 0.00 0.00 0.00 44 1015.2
20260906014810 31 102 6.4 20.9 0.00 0.00 0.00 43 1015.1
20260906014310 31 133 9.7 22.5 0.00 0.00 0.00 43 1014.7
20260906013813 31 125 9.7 22.5 0.00 0.00 0.00 43 1014.6
20260906013536 31 102 9.7 20.9 0.00 0.00 0.00 43 1014.5
20260906012808 31 100 9.7 22.5 0.00 0.00 0.00 42 1014.5
20260906012315 31 79 9.7 22.5 0.00 0.00 0.00 42 1014.5
20260906011808 31 104 8.0 19.3 0.00 0.00 0.00 42 1014.6
20260906011307 31 154 9.7 19.3 0.00 0.00 0.00 42 1014.4
20260906010807 31 125 6.4 17.7 0.00 0.00 0.00 41 1014.5
20260906010731 32 116 9.7 19.3 0.00 0.00 0.00 41 1014.5
20260906005809 32 85 9.7 19.3 0.00 0.00 0.00 40 1014.5
20260906005307 32 103 9.7 19.3 0.00 0.00 0.00 40 1014.6
20260906004810 32 96 9.7 20.9 0.00 0.00 0.00 40 1014.6
20260906004316 32 97 12.9 20.9 0.00 0.00 0.00 40 1014.4
20260906003808 32 114 8.0 16.1 0.00 0.00 0.00 39 1014.4
20260906003308 33 127 6.4 19.3 0.00 0.00 0.00 39 1014.3
20260906002807 33 138 11.3 24.1 0.00 0.00 0.00 39 1014.4
20260906002530 33 117 9.7 24.1 0.00 0.00 0.00 39 1014.4
20260906001807 33 86 12.9 22.5 0.00 0.00 0.00 38 1014.3
20260906001741 33 109 12.9 22.5 0.00 0.00 0.00 38 1014.2
20260906000809 33 134 9.7 24.1 0.00 0.00 0.00 38 1014.2
20260906000311 33 110 11.3 24.1 0.00 0.00 0.00 38 1014.0
20260905235812 33 130 11.3 22.5 0.00 0.00 0.00 38 1013.9
20260905235308 34 131 11.3 22.5 0.00 0.00 0.00 37 1013.9
20260905235036 35 104 11.3 22.5 0.00 0.00 0.00 34 1013.8
20260905234814 35 104 11.3 22.5 0.00 0.00 0.00 34 1013.8
20260905234313 34 118 6.4 16.1 0.00 0.00 0.00 34 1013.8
20260905234044 34 161 6.4 14.5 0.00 0.00 0.00 34 1013.7
20260905233812 34 161 6.4 14.5 0.00 0.00 0.00 34 1013.7
20260905233521 34 133 6.4 17.7 0.00 0.00 0.00 35 1013.4
20260905233401 34 97 8.0 14.5 0.00 0.00 0.00 34 1013.5
20260905232308 34 106 9.7 17.7 0.00 0.00 0.00 34 1013.4
20260905231814 34 133 8.0 16.1 0.00 0.00 0.00 35 1013.4
20260905231311 34 111 6.4 20.9 0.00 0.00 0.00 35 1013.4
20260905230904 35 97 9.7 19.3 0.00 0.00 0.00 34 1013.4
20260905230829 34 142 9.7 20.9 0.00 0.00 0.00 35 1013.4
20260905225810 35 113 8.0 16.1 0.00 0.00 0.00 33 1013.4
20260905225737 35 125 6.4 14.5 0.00 0.00 0.00 34 1013.4
20260905224812 35 180 6.4 16.1 0.00 0.00 0.00 33 1013.5
20260905224537 35 200 6.4 20.9 0.00 0.00 0.00 33 1013.4
20260905224311 35 200 6.4 20.9 0.00 0.00 0.00 33 1013.4
20260905223811 35 152 8.0 20.9 0.00 0.00 0.00 32 1013.5
20260905223536 35 110 4.8 19.3 0.00 0.00 0.00 32 1013.4
20260905223320 35 110 4.8 19.3 0.00 0.00 0.00 32 1013.4
20260905222818 36 121 9.7 20.9 0.00 0.00 0.00 32 1013.4
20260905222808 36 87 8.0 19.3 0.00 0.00 0.00 31 1013.4
20260905221812 36 188 6.4 25.7 0.00 0.00 0.00 32 1013.4
20260905221720 36 137 9.7 25.7 0.00 0.00 0.00 32 1013.4